Regional Weather Roundup
Issued by NWS

Home | Current Version | Previous Version | Graphics & Text | Print | Product List | Glossary On
Versions: 1 2 3 4 5 6 7 8 9 10 11 12 13 14 15 16 17 18 19 20 21 22 23 24 25 26 27 28 29 30 31 32 33 34 35 36 37 38 39 40 41 42 43 44 45 46 47 48 49 50
000
ASUS43 KDMX 270204
RWRIA

WEATHER ROUNDUP FOR IOWA
NATIONAL WEATHER SERVICE DES MOINES IA
  ISSUED BY NWS QUAD CITIES IA IL
800 PM CST MON JAN 26 2015

NOTE: "FAIR" INDICATES FEW OR NO CLOUDS BELOW 12,000 FEET WITH NO
SIGNIFICANT WEATHER AND/OR OBSTRUCTIONS TO VISIBILITY.

* - THESE STATIONS ARE NOT NWS STATIONS...THUS NOT UNDER NWS
QUALITY CONTROL.  THEY ALSO DO NOT REPORT WEATHER SUCH
AS PRECIPITATION OR FOG.

IAZ001>003-012>014-020>022-031>034-043>046-270300-
   NORTHWEST IOWA

CITY           SKY/WX    TMP DP  RH WIND       PRES   REMARKS
CARROLL *      CLEAR     39  36  87 NW10      29.96R WCI  32
DENNISON *     CLEAR     39  36  87 NW9       29.97R WCI  33
LE MARS *      CLEAR     37  34  87 NW6       30.00R WCI  33
ORANGE CITY *  CLEAR     37  34  87 NW5       29.98R WCI  34
SIOUX CITY     CLEAR     40  33  76 NW7       29.99R WCI  35
SPENCER        CLEAR     34  30  85 NW7       29.97R WCI  28
$$

IAZ055>058-069>071-079>083-090>094-270300-
   SOUTHWEST IOWA

CITY           SKY/WX    TMP DP  RH WIND       PRES   REMARKS
ATLANTIC *     CLEAR     41  34  75 NW9       29.97R WCI  35
AUDUBON *      CLEAR     41  34  75 NW6       29.98R WCI  37
CLARINDA *     CLEAR     45  34  65 NW8       29.99S
COUNCIL BLFS * PTCLDY    46  36  66 NW9       29.98S
CRESTON *      CLEAR     39  34  81 NW10      29.96R WCI  32
HARLAN *       CLEAR     37  37 100 NW12      30.01S WCI  30
LAMONI         CLEAR     42  34  73 NW12      29.94R WCI  36
RED OAK *      CLEAR     43  34  70 NW7       29.99R WCI  39
SHENANDOAH *   PTCLDY    39  32  75 NW8       30.00S WCI  34
$$

IAZ047>049-059>061-072>074-084-270300-
   CENTRAL IOWA

CITY           SKY/WX    TMP DP  RH WIND       PRES   REMARKS
AMES           CLOUDY    42  35  76 NW12      29.93R WCI  36
ANKENY *       CLOUDY    45  37  76 NW10G16   29.94R WCI  39
BOONE *        CLOUDY    43  36  75 NW14G22   29.92R WCI  36
CHARITON *     MOCLDY    45  36  70 NW17      29.93R WCI  37
DES MOINES     MOCLDY    45  36  70 NW9       29.95R
GRINNELL *     PTCLDY    37  35  92 NW9       29.90R WCI  30
KNOXVILLE *    CLOUDY    45  34  65 NW16G22   29.92R WCI  37
MARSHALLTOWN   CLEAR     38  33  82 NW16      29.90R WCI  29
PELLA *        CLOUDY    42  36  79 NW10      29.93R WCI  36
PERRY *          N/A     37  35  92 NW7       29.96R WCI  31
$$

IAZ004>006-015-016-023>025-035-036-270300-
   NORTH CENTRAL IOWA

CITY           SKY/WX    TMP DP  RH WIND       PRES   REMARKS
ALGONA *       CLOUDY    37  36  93 NW9       29.95R WCI  31
CLARION *      CLOUDY    37  37 100 N10       29.93R WCI  30
ESTHERVILLE    CLOUDY    36  32  85 NW13      29.95R WCI  27
FORT DODGE *   CLOUDY    37  32  81 NW5       29.95R WCI  34
MASON CITY     CLOUDY    37  32  82 NW17      29.92R WCI  27
WEBSTER CITY * CLOUDY    37  37 100 NW10      29.92R WCI  30
IOWA FALLS *   CLOUDY    38  33  82 NW14      29.92R WCI  29
$$

IAZ007>011-017>019-026>030-037>042-050>054-066-270300-
   NORTHEAST IOWA

CITY           SKY/WX    TMP DP  RH WIND       PRES   REMARKS
CEDAR RAPIDS   CLOUDY    38  35  89 NW12      29.86R WCI  30
CHARLES CITY * CLOUDY    37  36  93 NW12G17   29.88R WCI  30
CLINTON *      MOCLDY    28  25  86 E3        29.90R
DECORAH *      CLOUDY    36  34  93 NW3       29.84R
DUBUQUE        CLOUDY    27  26  96 S3        29.84S FOG
MONTICELLO *   CLOUDY    32  32 100 CALM      29.85F
OELWEIN *      CLOUDY    37  36  93 NW12      29.86S WCI  30
WATERLOO       CLOUDY    39  35  86 NW10      29.87S WCI  32
$$

IAZ064-065-067-068-078-270300-
   EAST CENTRAL IOWA

CITY           SKY/WX    TMP DP  RH WIND       PRES   REMARKS
DAVENPORT      CLOUDY    32  29  88 CALM      29.87R
IOWA CITY      CLOUDY    41  36  82 NW10      29.89R WCI  35
MT. PLEASANT * CLOUDY    41  36  83 NW8       29.89R WCI  36
MUSCATINE *    CLOUDY    34  32  93 CALM      29.88S
QUAD CITIES    CLOUDY    32  30  92 CALM      29.86S FOG
$$

IAZ062-063-075>077-085>089-095>099-270300-
   SOUTHEAST IOWA

CITY           SKY/WX    TMP DP  RH WIND       PRES   REMARKS
BURLINGTON     CLOUDY    35  33  92 W5        29.88R WCI  31
FAIRFIELD *    CLOUDY    41  36  81 NW13      29.90R WCI  34
FORT MADISON * CLOUDY    43  37  81 W7        29.90R WCI  39
KEOKUK *       CLOUDY    43  37  81 NW6       29.89R WCI  39
OTTUMWA        CLOUDY    42  37  82 NW8       29.90R WCI  37
WASHINGTON *   CLOUDY    41  41 100 NW9       29.88S WCI  35
$$

ABBREVIATIONS USED IN REMARKS
   TC - TEMPERATURES IN CELSIUS
  WCI - WIND CHILL INDEX
   HX - HEAT INDEX
  VSB - VISIBILITY
$$



USA.gov is the U.S. government's official web portal to all federal, state and local government web resources and services.